{"data":{"norad_id":58510,"epoch":"2026-09-20T21:41:00.444768Z","epoch_age_seconds":112121,"freshness":"FRESH","line1":"1 58510U 23191C   26263.90347737  .00000321  00000+0  21198-4 0  9994","line2":"2 58510  43.0023  81.2361 0001308 265.2651  94.8051 15.27578901155354","mean_motion":15.27578901,"eccentricity":0.0001308,"inclination_deg":43.0023,"raan_deg":81.2361,"arg_perigee_deg":265.2651,"mean_anomaly_deg":94.8051,"bstar":2.1198e-5,"rev_number":15535,"period_min":94.266816532837,"perigee_km":482.15494327119,"apogee_km":483.94983041479,"semimajor_km":6861.189386843,"source":"CELESTRAK","updated_at":"2026-09-21T09:00:33.906907Z"}}